Location: アルンシュタイン
(50.0000°N, 10.0000°E)
Time: 01:57:31
(UTC+02:00)

Explorer 11/Cluster Stage 4 - Pass Details

Date: 16 September 2024
Orbit: 464 x 1208 km, 28.8° (Epoch: 04 October)

Event Time Altitude Azimuth Distance (km) Brightness Sun altitude
Rises 10:39:15 0° 238° (WSW) 3,899 10.0 32.1°
Reaches altitude 10° 10:44:05 10° 211° (SSW) 3,059 9.8 32.7°
Maximum altitude 10:46:49 12° 190° (S) 2,937 10.1 33.0°
Drops below altitude 10° 10:49:37 10° 169° (S) 3,130 10.6 33.3°
Sets 10:54:44 0° 142° (SE) 4,099 11.3 33.9°
